THOR ABLESTAR DEB, 956

Orbit data source: Space-Track

THOR ABLESTAR DEB, 956 is space debris in LEO originally from a launch on Sun, 13 Dec 1964 UTC launched from the Air Force Western Test Range (AFWTR). Debris objects in space refer to the collection of defunct objects orbiting the Earth. Examples of debris include non-operational satellites, rocket bodies, and fragments generated from explosions, collisions, or faulty payload assembly.

Loading next visibility...
Identifier
956, 1964-083B
Orbit
LEO
Country
Flag of USUS
Related business
Manufacturer
Unknown
Mission
Spacecraft
Bus & Motor
Unknown
Mass
Unknown
Launch date (UTC)
1964-12-13 (61 years ago)
Launch vehicle
Unknown
Launch site
Air Force Western Test Range (AFWTR)
Object type
Payload
Rocket body
Debris
Shape & HBR
Unknown
Radar Cross Section
Small (<0.1 m²)

Expand to show TLE details & history
Last TLE update: 15 hours ago

TLE from 15 hours ago
0 THOR ABLESTAR DEB
1 00956U 64083B   25259.24214161  .00000259  00000-0  29490-3 0  9998
2 00956  89.9375 170.8604 0024890 112.7839  41.0183 13.67370937 18689
Epoch: 2025-09-16T05:48Z
TLE epoch observation values (Epoch: 2025-09-16T05:48:41.035Z)
Latitude
26.04122°
Longitude
-91.77622°
Altitude
998.408 km
Speed
7.362 km/s
True Right ascension
23h 23m 19s
True Declination
25° 54' 37"
Sunlit
Object was in full shadow at epoch
Visualization orbit readout
Latitude
Unknown
Longitude
Unknown
Altitude
Unknown
Speed
Unknown
Apparent Right ascension
Unknown
Apparent Declination
Unknown
Sunlit
N/A
Visualization observer readout
Local Sidereal Time
13:38:32
Azimuth
Unknown
Elevation
Unknown
Doppler factor
Unknown
Orbital elements
Apogee altitude
1,024.429 km
Perigee altitude
987.67 km
Semi-major axis
7,384.186 km
Eccentricity
0.00249
Inclination
89.9375°
RAAN
170.8604°
Arg. of periapsis
112.7839°
True anomaly
41.20593°
Mean anomaly
41.0183°
Eccentric anomaly
41.11207°
Mean motion
3.4205 °/min
Orbital period
105.25 mins
BSTAR
0.0002949
Loading maneuver chart data...
Computing Atmospheric mass density...

Documentation

Showing up to 5 results
|